Weather History for PAEI - September, 2012

Change the Weather History Date:

Wednesday, September 19, 2012

  Actual Average Record
Temperature  
Mean Temperature 49 °F -  
Max Temperature 63 °F 52 °F 67 °F (1949)
Min Temperature 35 °F 34 °F 18 °F (1960)
Degree Days  
Heating Degree Days 16    
Moisture  
Dew Point 37 °F    
Average Humidity 63    
Maximum Humidity 87    
Minimum Humidity 41    
Precipitation  
Precipitation 0.00 in - - ()
Sea Level Pressure  
Sea Level Pressure 29.57 in    
Wind  
Wind Speed 6 mph (South)    
Max Wind Speed 23 mph    
Max Gust Speed 32 mph    
Visibility 10 miles    
Events Rain    
Averages and records for this station are not official NWS values.
T = Trace of Precipitation, MM = Missing Value Source: NWS Daily Summary

Daily Weather History Graph

Daily Weather History Graph

Search for Another Location

Airport or City:

Trip Planner

Search our weather history database for the weather conditions in past years. The results will help you decide how hot, cold, wet, or windy it might be!

Date:

Astronomy

Sep. 19, 2012 Rise Set
Actual Time 7:24 AM AKDT 7:57 PM AKDT
Civil Twilight 6:35 AM AKDT 8:46 PM AKDT
Nautical Twilight 5:34 AM AKDT 9:47 PM AKDT
Astronomical Twilight 4:21 AM AKDT 10:58 PM AKDT
Moon 1:52 PM AKDT (9/19) 8:03 PM AKDT (9/19)
Length of Visible Light 14h 11m
Length of Day
12h 33m
Waxing Crescent, 18% of the Moon is Illuminated
Sep 19
Waxing Crescent
Sep 22
First Quarter
Sep 29
Full
Oct 7
Last Quarter
Oct 15
New

Hourly Weather History & Observations

Time (AKDT) Temp. Windchill Dew Point Humidity Pressure Visibility Wind Dir Wind Speed Gust Speed Precip Events Conditions
12:55 AM 37.2 °F - 33.1 °F 85% 29.77 in 10.0 mi Calm Calm - N/A   Mostly Cloudy
1:55 AM 36.9 °F - 32.9 °F 86% 29.77 in 10.0 mi Calm Calm - N/A   Partly Cloudy
2:55 AM 35.4 °F 32.6 °F 31.6 °F 86% 29.76 in 10.0 mi East 3.5 mph - N/A   Clear
3:55 AM 35.4 °F 32.6 °F 31.8 °F 87% 29.74 in 10.0 mi East 3.5 mph - N/A   Clear
4:55 AM 36.1 °F - 31.3 °F 83% 29.72 in 10.0 mi Calm Calm - N/A   Clear
5:55 AM 46.6 °F - 31.1 °F 55% 29.69 in 10.0 mi ENE 6.9 mph - N/A   Partly Cloudy
6:55 AM 51.1 °F - 31.1 °F 46% 29.68 in 10.0 mi South 6.9 mph - N/A   Mostly Cloudy
7:55 AM 52.5 °F - 30.7 °F 43% 29.65 in 10.0 mi South 11.5 mph - N/A   Partly Cloudy
8:55 AM 53.8 °F - 30.2 °F 41% 29.60 in 10.0 mi South 21.9 mph 32.2 mph N/A   Overcast
9:55 AM 53.8 °F - 31.5 °F 43% 29.59 in 10.0 mi South 17.3 mph - N/A   Overcast
10:55 AM 51.6 °F - 36.7 °F 57% 29.57 in 10.0 mi South 23.0 mph 32.2 mph 0.00 in Rain Light Rain
11:55 AM 50.2 °F - 39.4 °F 66% 29.63 in 10.0 mi South 15.0 mph - 0.00 in Rain Light Rain
12:55 PM 53.4 °F - 38.1 °F 56% 29.51 in 10.0 mi SE 4.6 mph - 0.00 in   Overcast
1:55 PM 56.5 °F - 38.7 °F 51% 29.47 in 10.0 mi South 13.8 mph - N/A   Mostly Cloudy
2:55 PM 59.2 °F - 39.2 °F 48% 29.44 in 10.0 mi South 10.4 mph - N/A   Mostly Cloudy
3:55 PM 62.1 °F - 39.2 °F 43% 29.41 in 10.0 mi SSW 15.0 mph - N/A   Mostly Cloudy
4:55 PM 63.1 °F - 40.5 °F 43% 29.40 in 10.0 mi South 6.9 mph - N/A   Partly Cloudy
5:55 PM 62.6 °F - 40.1 °F 44% 29.39 in 10.0 mi SSW 8.1 mph - N/A   Scattered Clouds
6:55 PM 59.0 °F - 45.1 °F 60% 29.41 in 10.0 mi Calm Calm - N/A   Mostly Cloudy
7:55 PM 51.6 °F - 42.3 °F 70% 29.43 in 10.0 mi WSW 8.1 mph - N/A   Mostly Cloudy
8:55 PM 49.1 °F - 42.1 °F 77% 29.45 in 10.0 mi WSW 6.9 mph - N/A   Clear
9:55 PM 48.6 °F - 41.5 °F 77% 29.47 in 10.0 mi Calm Calm - N/A   Clear
10:55 PM 48.0 °F - 41.5 °F 78% 29.51 in 10.0 mi Calm Calm - N/A   Clear
11:55 PM 47.1 °F - 41.5 °F 81% 29.55 in 10.0 mi West 3.5 mph - N/A   Mostly Cloudy